Tracking 25648 objects as of 16-May-2022
HD Live streaming from Space Station
objects crossing your sky now

COSMOS 2251 DEB

Track COSMOS 2251 DEB now!
10-day predictions


NORAD ID: 35784
Int'l Code: 1993-036ASE
Perigee: 715.7 km
Apogee: 778.5 km
Inclination: 74.0 °
Period: 99.6 minutes
Semi major axis: 7118 km
RCS: 0.0069 m2 (small)
Launch date: June 16, 1993
Source: Commonwealth of Independent States (former USSR) (CIS)
Launch site: PLESETSK MISSILE AND SPACE COMPLEX (PKMTR)

Note: This is SATELLITE DEBRIS
aabbcc
Your satellite tracking list
Your tracking list is empty




NASA's NSSDC Master Catalog

Two Line Element Set (TLE):
1 35784U 93036ASE 22135.92468889  .00000814  00000-0  23519-3 0  9991
2 35784  74.0415  13.5575 0044092 108.5070 252.0887 14.45637655467977
Source of the keplerian elements: AFSPC